EUTELSAT HOTBIRD 13G

Last updated on Sun Jun 21 2026 00:03:09 GMT+0000 (Coordinated Universal Time)

1 54225U 22146A 26171.10938343 .00000082 00000+0 00000+0 0 9999 2 54225 0.0472 222.5154 0002093 317.6469 140.5390 1.00272784 7497
UTC large
Height (km)
Speed (km/s)
/
Latitude / Longitude
Inclination (degrees)
Orbital Period (minutes)
Azimuth
Elevation
Range (km)
Doppler Factor

Next 0 passes for location: London (51.5072 / 0.1276)

No passes found over London.
EUTELSAT HOTBIRD 13G